Lawtey Elementary School FL US WEATHERSTEM current weather conditions

sailwx.info

Air temperature 9.5° C
Dewpoint 8.6° C

Last reported at 2020-Jan-25 12:20 UTC.
Time now 2020-Jan-25 13:25 UTC

Location: N 30°03' W 082°04'.
View on Google Maps.

See reports from other nearby stations

  
Tides and Currents Weather Stations Pressure Air Temp Water Temp Dewpoint Dewpoint Depression Visibility Wind Speed Wind Dir Waves Ship Positions
date/time (UTC)wind fromknots sea level pressurealtimeterstation pressurevisibilityair tempwater tempwave heightnotes
2020-Jan-25 12:20 9.5
2020-Jan-25 12:10 9.4
2020-Jan-25 12:00 9.3
2020-Jan-25 11:40 9.2
2020-Jan-25 11:20 9.3
2020-Jan-25 11:10 9.3
2020-Jan-25 10:50 9.6
2020-Jan-25 10:40 9.8
2020-Jan-25 10:20 10.3
2020-Jan-25 10:10 10.6
2020-Jan-25 10:00 10.9
2020-Jan-25 09:50 11.2
2020-Jan-25 09:40 11.5
2020-Jan-25 09:20 12.0
2020-Jan-25 09:10 12.4
2020-Jan-25 09:00 12.7
2020-Jan-25 08:40 12.9
2020-Jan-25 08:30 198 1 gusting 2 13.2
2020-Jan-25 08:20 13.3
2020-Jan-25 08:10 13.4
2020-Jan-25 08:00 198 0 gusting 3 13.6
2020-Jan-25 07:50 197 0 gusting 1 13.7
2020-Jan-25 07:40 13.8
2020-Jan-25 07:30 14.1
2020-Jan-25 07:20 14.3
2020-Jan-25 07:10 286 0 gusting 3 14.4
2020-Jan-25 07:00 209 0 gusting 5 14.7
2020-Jan-25 06:40 200 1 gusting 6 15.0
2020-Jan-25 06:30 215 0 gusting 6 15.2
2020-Jan-25 06:20 213 1 gusting 6 15.3
2020-Jan-25 06:10 216 2 gusting 7 15.3
2020-Jan-25 06:00 198 3 gusting 12 15.5
2020-Jan-25 05:40 206 4 gusting 5 16.0
2020-Jan-25 05:30 215 1 gusting 4 16.3
2020-Jan-25 05:20 211 2 gusting 4 16.4
2020-Jan-25 05:10 193 2 gusting 6 16.7
2020-Jan-25 05:00 184 1 gusting 6 16.8
2020-Jan-25 04:40 189 3 gusting 10 17.0
2020-Jan-25 04:30 225 6 gusting 8 17.1
2020-Jan-25 04:20 221 5 gusting 9 17.1
2020-Jan-25 04:10 228 5 gusting 9 17.1
2020-Jan-25 04:00 215 3 gusting 8 17.1
2020-Jan-25 03:50 205 5 gusting 7 17.2
2020-Jan-25 03:40 214 4 gusting 6 17.4
2020-Jan-25 03:20 185 2 gusting 8 17.7
2020-Jan-25 03:10 220 5 gusting 8 17.8
2020-Jan-25 03:00 194 3 gusting 6 17.8
2020-Jan-25 02:40 155 1 gusting 7 18.1
2020-Jan-25 02:20 215 4 gusting 8 18.2
2020-Jan-25 02:10 208 3 gusting 6 18.1
2020-Jan-25 02:00 178 0 gusting 5 18.2
2020-Jan-25 01:50 180 2 gusting 5 18.4
2020-Jan-25 01:30 207 3 gusting 11 18.5
2020-Jan-25 01:20 178 4 gusting 9 18.4
2020-Jan-25 01:10 154 2 gusting 6 18.3
2020-Jan-25 01:00 181 2 gusting 6 18.2
2020-Jan-25 00:50 165 3 gusting 3 18.2
2020-Jan-25 00:40 173 1 gusting 3 18.3
2020-Jan-25 00:20 170 1 gusting 4 18.4
2020-Jan-25 00:10 144 1 gusting 1 18.6
2020-Jan-25 00:00 144 0 gusting 2 18.8
2020-Jan-24 23:50 19.0
2020-Jan-24 23:40 19.2
2020-Jan-24 23:30 144 0 gusting 3 19.3
2020-Jan-24 23:20 145 2 gusting 4 19.5
2020-Jan-24 23:10 155 2 gusting 3 19.8
2020-Jan-24 23:00 159 3 gusting 4 20.0
2020-Jan-24 22:50 157 2 gusting 4 20.1
2020-Jan-24 22:40 156 0 gusting 5 20.2
2020-Jan-24 22:30 178 1 gusting 7 20.3
2020-Jan-24 22:20 176 2 gusting 6 20.5
2020-Jan-24 22:10 155 6 gusting 7 20.3
2020-Jan-24 21:50 166 5 gusting 9 19.9
2020-Jan-24 21:40 165 3 gusting 10 19.6
2020-Jan-24 21:30 155 3 gusting 7 19.4
2020-Jan-24 21:20 150 3 gusting 6 19.4
2020-Jan-24 21:10 145 4 gusting 7 19.6
2020-Jan-24 20:50 147 5 gusting 11 20.6
2020-Jan-24 20:40 193 5 gusting 9 20.5
2020-Jan-24 20:20 212 4 gusting 8 20.8
2020-Jan-24 20:10 215 1 gusting 15 21.0
2020-Jan-24 19:50 212 3 gusting 7 21.8
2020-Jan-24 19:40 132 3 gusting 6 21.6
2020-Jan-24 19:30 135 2 gusting 8 21.4
2020-Jan-24 19:20 150 4 gusting 8 21.7
2020-Jan-24 19:10 146 6 gusting 7 22.2
2020-Jan-24 18:50 141 2 gusting 7 22.4
2020-Jan-24 18:40 156 2 gusting 8 22.6
2020-Jan-24 18:30 161 5 gusting 11 22.7
2020-Jan-24 18:20 146 6 gusting 11 22.8
2020-Jan-24 18:10 184 5 gusting 11 22.8
2020-Jan-24 18:00 142 6 gusting 12 23.2
2020-Jan-24 17:50 168 8 gusting 8 23.2
2020-Jan-24 17:40 162 1 gusting 10 22.8
2020-Jan-24 17:30 153 6 gusting 11 22.9
2020-Jan-24 17:20 182 11 gusting 11 22.9
2020-Jan-24 17:10 166 8 gusting 8 22.8
2020-Jan-24 17:00 138 3 gusting 8 22.3
2020-Jan-24 16:50 146 4 gusting 11 21.9
2020-Jan-24 16:40 195 3 gusting 9 21.7
2020-Jan-24 16:30 125 7 gusting 13 21.5
2020-Jan-24 16:10 153 3 gusting 12 20.9
2020-Jan-24 16:00 126 11 gusting 13 20.8
2020-Jan-24 15:50 173 9 gusting 11 20.5
2020-Jan-24 15:40 123 4 gusting 13 20.6
2020-Jan-24 15:30 137 1 gusting 13 19.8
2020-Jan-24 15:20 153 4 gusting 10 19.6
2020-Jan-24 15:10 127 0 gusting 8 19.1
2020-Jan-24 15:00 157 4 gusting 8 18.6
2020-Jan-24 14:50 148 1 gusting 7 18.1
2020-Jan-24 14:40 139 8 gusting 12 17.7
2020-Jan-24 14:30 150 2 gusting 10 17.2
2020-Jan-24 14:20 131 6 gusting 12 17.0
2020-Jan-24 14:10 146 2 gusting 6 16.7
2020-Jan-24 14:00 130 3 gusting 7 16.2
2020-Jan-24 13:50 140 1 gusting 4 15.7
2020-Jan-24 13:40 108 2 gusting 3 14.9
2020-Jan-24 13:30 13.2
2020-Jan-24 13:10 12.2
2020-Jan-24 13:00 11.8
2020-Jan-24 12:50 11.8
2020-Jan-24 12:40 11.7
2020-Jan-24 12:30 11.7
2020-Jan-24 12:20 11.8
2020-Jan-24 12:10 11.9
2020-Jan-24 12:00 12.1
2020-Jan-24 11:50 12.2
2020-Jan-24 11:40 12.4
2020-Jan-24 11:30 12.5
2020-Jan-24 11:20 12.6
2020-Jan-24 11:10 12.6
2020-Jan-24 11:00 12.7
2020-Jan-24 10:50 12.7
2020-Jan-24 10:40 12.8
2020-Jan-24 10:30 12.9
2020-Jan-24 10:20 13.0
2020-Jan-24 10:10 13.0
2020-Jan-24 10:00 12.8
2020-Jan-24 09:50 12.7
2020-Jan-24 09:40 12.7
2020-Jan-24 09:30 13.0
2020-Jan-24 09:20 13.0
2020-Jan-24 09:10 13.1
2020-Jan-24 09:00 13.1
2020-Jan-24 08:50 13.1
2020-Jan-24 08:40 13.1
2020-Jan-24 08:30 13.1
2020-Jan-24 08:20 13.2
2020-Jan-24 08:10 13.2
2020-Jan-24 07:50 13.2
2020-Jan-24 07:40 13.2
2020-Jan-24 07:30 13.2
2020-Jan-24 07:20 13.2
2020-Jan-24 07:10 13.2
2020-Jan-24 07:00 13.2
2020-Jan-24 06:50 13.2
2020-Jan-24 06:40 13.2
2020-Jan-24 06:30 026 0 gusting 2 13.2
2020-Jan-24 06:20 13.2
2020-Jan-24 06:10 13.2
2020-Jan-24 06:00 13.2
2020-Jan-24 05:50 043 0 gusting 2 13.2
2020-Jan-24 05:40 043 1 gusting 3 13.2
2020-Jan-24 05:30 13.2
2020-Jan-24 05:20 041 0 gusting 2 13.3
2020-Jan-24 05:10 13.3
2020-Jan-24 05:00 13.3
2020-Jan-24 04:50 13.3
2020-Jan-24 04:40 13.3
2020-Jan-24 04:30 066 0 gusting 4 13.2
2020-Jan-24 04:20 065 3 gusting 4 13.2
2020-Jan-24 04:10 360 0 gusting 2 13.2
2020-Jan-24 04:00 022 1 gusting 6 13.2
2020-Jan-24 03:50 061 1 gusting 4 13.2
2020-Jan-24 03:40 005 0 gusting 4 13.2
2020-Jan-24 03:30 13.1
2020-Jan-24 03:20 053 3 gusting 4 13.1
2020-Jan-24 03:10 068 1 gusting 6 13.0
2020-Jan-24 03:00 028 0 gusting 5 12.9
2020-Jan-24 02:40 043 2 gusting 5 12.9
2020-Jan-24 02:30 026 2 gusting 5 13.0
2020-Jan-24 02:20 040 1 gusting 8 13.0
2020-Jan-24 02:10 360 3 gusting 6 12.9
2020-Jan-24 02:00 020 1 gusting 7 13.0
2020-Jan-24 01:50 015 4 gusting 5 13.0
2020-Jan-24 01:40 033 1 gusting 6 12.9
2020-Jan-24 01:30 038 2 gusting 8 12.9
2020-Jan-24 01:10 013 6 gusting 8 12.9
2020-Jan-24 01:00 048 4 gusting 8 13.0
2020-Jan-24 00:50 057 5 gusting 8 13.1
2020-Jan-24 00:40 015 3 gusting 11 13.2
2020-Jan-24 00:30 018 6 gusting 7 13.2
2020-Jan-24 00:20 031 0 gusting 8 13.3
2020-Jan-24 00:10 005 3 gusting 7 13.4
2020-Jan-24 00:00 333 1 gusting 8 13.5
2020-Jan-23 23:50 066 5 gusting 8 13.6
2020-Jan-23 23:40 063 6 gusting 6 13.7
2020-Jan-23 23:30 037 2 gusting 12 13.8
2020-Jan-23 23:20 005 2 gusting 9 14.0
2020-Jan-23 23:10 030 6 gusting 8 14.3
2020-Jan-23 23:00 011 3 gusting 6 14.8
2020-Jan-23 22:50 014 3 gusting 6 14.9
2020-Jan-23 22:30 066 2 gusting 8 15.5
2020-Jan-23 22:20 063 5 gusting 7 15.7
2020-Jan-23 22:10 089 7 gusting 8 16.0
2020-Jan-23 22:00 060 1 gusting 7 16.3
2020-Jan-23 21:50 040 1 gusting 8 16.3
2020-Jan-23 21:40 078 4 gusting 8 16.4
2020-Jan-23 21:30 022 2 gusting 9 16.6
2020-Jan-23 21:20 019 1 gusting 9 16.7
2020-Jan-23 21:10 061 6 gusting 7 16.7
2020-Jan-23 21:00 086 7 gusting 8 16.9
2020-Jan-23 20:50 088 8 gusting 8 17.0
2020-Jan-23 20:40 064 6 gusting 9 16.9
2020-Jan-23 20:30 062 6 gusting 11 16.9
2020-Jan-23 20:20 351 2 gusting 8 17.1
2020-Jan-23 20:10 360 3 gusting 7 16.9
2020-Jan-23 20:00 017 2 gusting 8 17.0
2020-Jan-23 19:50 015 4 gusting 8 17.1
2020-Jan-23 19:40 355 3 gusting 8 17.2
2020-Jan-23 19:30 005 2 gusting 8 17.3
2020-Jan-23 19:10 045 3 gusting 7 17.1
2020-Jan-23 19:00 360 2 gusting 6 17.0
2020-Jan-23 18:50 022 4 gusting 6 16.8
2020-Jan-23 18:40 042 2 gusting 6 16.7
2020-Jan-23 18:20 321 3 gusting 6 16.7
2020-Jan-23 18:10 005 4 gusting 8 16.4
2020-Jan-23 18:00 011 2 gusting 7 16.1
2020-Jan-23 17:50 321 3 gusting 7 15.9
2020-Jan-23 17:40 355 3 gusting 7 15.8
2020-Jan-23 17:30 015 2 gusting 8 15.7
2020-Jan-23 17:20 304 2 gusting 8 15.6
2020-Jan-23 17:10 055 5 gusting 7 15.3
2020-Jan-23 17:00 339 5 gusting 9 15.1
2020-Jan-23 16:50 336 4 gusting 8 14.9
2020-Jan-23 16:40 005 4 gusting 8 14.6
2020-Jan-23 16:30 336 2 gusting 9 14.2
2020-Jan-23 16:20 308 2 gusting 8 14.1
2020-Jan-23 16:10 334 3 gusting 8 13.9
2020-Jan-23 16:00 344 3 gusting 8 13.7
2020-Jan-23 15:40 360 0 gusting 7 13.3
2020-Jan-23 15:30 033 1 gusting 10 13.2
2020-Jan-23 15:20 011 4 gusting 10 13.1
2020-Jan-23 15:10 312 3 gusting 11 12.9
2020-Jan-23 15:00 355 1 gusting 8 12.6
2020-Jan-23 14:50 026 3 gusting 8 12.3
2020-Jan-23 14:40 005 6 gusting 10 11.9
2020-Jan-23 14:30 351 0 gusting 8 11.7
2020-Jan-23 14:20 323 2 gusting 6 11.5
2020-Jan-23 14:10 005 0 gusting 10 11.2
2020-Jan-23 14:00 360 3 gusting 6 10.8
2020-Jan-23 13:50 327 3 gusting 9 10.4
2020-Jan-23 13:40 013 4 gusting 7 10.2
2020-Jan-23 13:20 005 3 gusting 8 9.8
2020-Jan-23 13:10 346 7 gusting 8 9.7
2020-Jan-23 13:00 333 3 gusting 6 9.7